TimePST,TemperatureF,Dew PointF,Humidity,Sea Level PressureIn,VisibilityMPH,Wind Direction,Wind SpeedMPH,Gust SpeedMPH,PrecipitationIn,Events,Conditions,WindDirDegrees,DateUTC
12:53 AM,48.0,37.9,68,29.89,10.0,Calm,Calm,-,N/A,,Scattered Clouds,0,2012-11-07 08:53:00
1:53 AM,48.9,32.0,52,29.91,10.0,ESE,3.5,-,N/A,,Clear,110,2012-11-07 09:53:00
2:53 AM,44.1,30.9,60,29.93,10.0,Calm,Calm,-,N/A,,Clear,0,2012-11-07 10:53:00
3:53 AM,46.0,28.9,51,29.95,10.0,WSW,9.2,-,N/A,,Clear,240,2012-11-07 11:53:00
4:53 AM,44.1,30.0,58,29.96,10.0,West,8.1,-,N/A,,Clear,260,2012-11-07 12:53:00
5:53 AM,46.0,28.0,50,29.97,10.0,WSW,9.2,-,N/A,,Clear,250,2012-11-07 13:53:00
6:53 AM,44.1,28.0,53,29.99,10.0,WSW,8.1,-,N/A,,Clear,240,2012-11-07 14:53:00
7:53 AM,46.9,27.0,46,30.01,10.0,SW,6.9,-,N/A,,Clear,220,2012-11-07 15:53:00
8:53 AM,50.0,25.0,38,30.01,10.0,WNW,18.4,-,N/A,,Clear,290,2012-11-07 16:53:00
9:53 AM,52.0,25.0,35,30.01,4.0,West,20.7,-,N/A,,Haze,280,2012-11-07 17:53:00
10:53 AM,54.0,26.1,34,30.02,4.0,WNW,17.3,25.3,N/A,,Haze,290,2012-11-07 18:53:00
11:53 AM,55.0,26.1,33,30.02,7.0,West,16.1,-,N/A,,Clear,260,2012-11-07 19:53:00
12:53 PM,55.0,25.0,31,30.02,7.0,West,13.8,19.6,N/A,,Clear,280,2012-11-07 20:53:00
1:53 PM,54.0,24.1,31,30.02,7.0,West,9.2,-,N/A,,Clear,280,2012-11-07 21:53:00
2:53 PM,54.0,26.1,34,30.02,6.0,WNW,10.4,-,N/A,,Haze,290,2012-11-07 22:53:00
3:53 PM,52.0,25.0,35,30.02,6.0,WNW,5.8,-,N/A,,Haze,300,2012-11-07 23:53:00
4:53 PM,48.0,27.0,44,30.02,8.0,NW,3.5,-,N/A,,Clear,310,2012-11-08 00:53:00
5:53 PM,43.0,28.0,56,30.02,10.0,NW,6.9,-,N/A,,Clear,320,2012-11-08 01:53:00
6:53 PM,41.0,28.0,60,30.01,9.0,NW,6.9,-,N/A,,Clear,310,2012-11-08 02:53:00
7:53 PM,39.0,27.0,62,30.00,10.0,NNE,5.8,-,N/A,,Clear,30,2012-11-08 03:53:00
8:53 PM,39.0,27.0,62,29.99,8.0,NW,8.1,-,N/A,,Clear,310,2012-11-08 04:53:00
9:53 PM,36.0,27.0,70,29.99,10.0,NNW,4.6,-,N/A,,Clear,340,2012-11-08 05:53:00
10:53 PM,35.1,26.1,70,29.96,10.0,NNW,6.9,-,N/A,,Clear,330,2012-11-08 06:53:00
11:53 PM,33.1,27.0,78,29.96,10.0,North,5.8,-,N/A,,Partly Cloudy,10,2012-11-08 07:53:00